Погода в Первом Чурашеве

Россия / Чувашская Республика     55°56′50″N   47°40′47″E
темп.,
°C
ветер,
м/с
пор.,
м/с
влажн.,
%
обл.,
%
осадки,
мм/ч
давл.,
гПа
погр.,
м
15 мая, сб
сб1500:00+17ю228497 0.0 101816
03:00+17юв3384100 0.0 101740
06:00+19юв3983100 0.0 1017227
09:00+23ю61258100 0.0 1016583
12:00+27ю71347100 0.0 10161192
15:00+27ю61146100 0.0 10161211
18:00+23ю6145748 0.0 1015360
21:00+19ю514635 0.0 1015242
16 мая, вс
вс1600:00+17ю413675 0.0 1015189
03:00+15ю46675 0.0 101683
06:00+17ю387070 0.0 1015184
09:00+22ююз475614 0.0 1015475
12:00+25ююз6847100 0.0 10151105
15:00+26юз5952100 0.0 10151605
18:00+23юз367188 0.0 1015149
21:00+19юз22846 0.1 101514
17 мая, пн
пн1700:00+17зсз1188100 0.3 101611
03:00+17зюз2288100 0.7 101719
06:00+19зюз118173 0.0 1018110
09:00+23зюз126420 0.0 1018593
12:00+26юз345084 0.0 10181231
15:00+26юз344884 0.0 10181243
18:00+26св11585 0.0 101711
21:00+20вюв22695 0.0 101711
18 мая, вт
вт1800:00+18ююв227460 0.0 101714
03:00+17ююз2359100 0.0 101717
06:00+19ю2362100 0.0 101865
09:00+23юв3450100 0.0 1017281
12:00+27ююв4541100 0.0 1017934
15:00+28ююв353899 0.0 10171595
18:00+24юв3356100 0.0 101642
21:00+20юв3360100 0.0 101622
19 мая, ср
ср1900:00+18вюв3354100 0.0 101626
03:00+16юв335683 0.0 101621
06:00+18вюв38665 0.0 1015179
09:00+24юв695167 0.0 1015425
12:00+27юв610415 0.0 10141121
15:00+28юв7114338 0.0 10131743
18:00+24юв49585 0.0 1011205
21:00+21юв717528 0.0 1011447